National Weather Service Raw Text Product

Displaying AFOS PIL: RWRIA Received: 2017-11-15 00:00 UTC


448 
ASUS43 KDMX 150006
RWRIA 

WEATHER ROUNDUP FOR IOWA
NATIONAL WEATHER SERVICE DES MOINES IA
600 PM CST TUE NOV 14 2017

NOTE: "FAIR" INDICATES FEW OR NO CLOUDS BELOW 12,000 FEET WITH NO
SIGNIFICANT WEATHER AND/OR OBSTRUCTIONS TO VISIBILITY.

* - THESE STATIONS ARE NOT NWS STATIONS...THUS NOT UNDER NWS
QUALITY CONTROL.  THEY ALSO DO NOT REPORT WEATHER SUCH 
AS PRECIPITATION OR FOG.  

IAZ001>003-012>014-020>022-031>034-043>046-150100-
   NORTHWEST IOWA
  
CITY           SKY/WX    TMP DP  RH WIND       PRES   REMARKS
CARROLL *      CLOUDY    54  54 100 S13       29.82F FOG              
CHEROKEE *     CLOUDY    52  50  94 SW9       29.81R                  
DENISON *      CLOUDY    54  54 100 SW10G18   29.83S FOG              
LE MARS *      CLOUDY    52  48  87 S9        29.80R                  
ORANGE CITY *  CLOUDY    52  50  93 S8        29.79R                  
SHELDON *      CLOUDY    50  48  93 S9        29.77S FOG              
SIOUX CITY     CLOUDY    53  49  86 SW9       29.82R                  
6HR MIN TEMP:  51; 6HR MAX TEMP:  53;                                

SPENCER        CLOUDY    51  49  92 SW8       29.81S                  
6HR MIN TEMP:  48; 6HR MAX TEMP:  51;                                

STORM LAKE *   CLOUDY    52  50  93 SW13      29.81R FOG              
$$
 
IAZ055>058-069>071-079>083-090>094-150100-
   SOUTHWEST IOWA
  
CITY           SKY/WX    TMP DP  RH WIND       PRES   REMARKS
ATLANTIC *     CLOUDY    54  54 100 S13       29.84F FOG              
AUDUBON *      CLOUDY    54  52  94 S9        29.85S FOG              
CLARINDA *       N/A     54  54 100 S10         N/A  FOG              
COUNCIL BLFS * CLOUDY    54  54 100 S7        29.84S FOG              
CRESTON *      CLOUDY    52  52 100 S12       29.89S FOG              
HARLAN  *      CLOUDY    54  54 100 S9        29.87S FOG              
LAMONI         CLOUDY    50  50 100 S8        29.91S FOG              
6HR MIN TEMP:  50; 6HR MAX TEMP:  51;                                

RED OAK *      CLOUDY    55  55 100 S13       29.86S FOG              
SHENANDOAH *   CLOUDY    55  55 100 S12       29.87S FOG              
$$
 
IAZ047>049-059>061-072>074-084-150100-
   CENTRAL IOWA
  
CITY           SKY/WX    TMP DP  RH WIND       PRES   REMARKS
AMES           CLOUDY    50  50 100 S12       29.88R FOG              
6HR MIN TEMP:  49; 6HR MAX TEMP:  51;                                

ANKENY *       CLOUDY    50  50 100 S14       29.89S FOG              
BOONE *        CLOUDY    50  50 100 S10       29.87R FOG              
CHARITON *     CLOUDY    50  48  93 S13       29.91S                  
DES MOINES     DRIZZLE   51  50  96 S14       29.88F FOG              
6HR MIN TEMP:  49; 6HR MAX TEMP:  51; 6HR PCP:  0.01;                

GRINNELL*      CLOUDY    47  46  93 S14G20    29.93S FOG              
KNOXVILLE *    CLOUDY    50  46  87 S10G18    29.90F                  
MARSHALLTOWN   CLOUDY    48  48 100 S14       29.89S FOG              
6HR MIN TEMP:  45; 6HR MAX TEMP:  50;                                

NEWTON *       CLOUDY    48  48 100 S15       29.90F FOG              
PELLA *        CLOUDY    49  47  91 S8        29.94S FOG              
PERRY *        CLOUDY    52  52  99 S10       29.87R FOG              
$$
 
IAZ004>006-015-016-023>025-035-036-150100-
   NORTH CENTRAL IOWA
  
CITY           SKY/WX    TMP DP  RH WIND       PRES   REMARKS
ALGONA *       CLOUDY    50  50 100 S12       29.82F FOG              
CLARION *      CLOUDY    50  50 100 S17       29.84R FOG              
ESTHERVILLE    CLOUDY    49  49 100 S7        29.80S FOG              
6HR MIN TEMP:  44; 6HR MAX TEMP:  49;                                

FORT DODGE *   CLOUDY    51  50  96 S13       29.83F FOG              
MASON CITY     LGT RAIN  47  46  97 S15       29.87S FOG              
6HR MIN TEMP:  42; 6HR MAX TEMP:  47; 6HR PCP: TRACE;                

FOREST CITY *  DRIZZLE   46  46 100 S12       29.84S                  
WEBSTER CITY * CLOUDY    50  50 100 S15       29.83F FOG              
IOWA FALLS *   DRIZZLE   49  48  97 SE10      29.89S                  
$$

IAZ007>011-017>019-026>030-037>042-050>054-066-150100-
   NORTHEAST IOWA
  
CITY           SKY/WX    TMP DP  RH WIND       PRES   REMARKS
CEDAR RAPIDS   CLOUDY    45  43  93 S13       29.94F FOG              
6HR MIN TEMP:  43; 6HR MAX TEMP:  45; 6HR PCP: TRACE;                

CHARLES CITY * CLOUDY    45  45 100 SE12      29.89F FOG              
CLINTON *      CLOUDY    46  39  76 SE10      30.01F                  
DECORAH *      FOG       41  41 100 S10G16    29.92R VSB 3/4          
DUBUQUE        CLOUDY    42  39  89 S12       29.97F                  
6HR MIN TEMP:  39; 6HR MAX TEMP:  42;                                

MONTICELLO *   CLOUDY    45  41  87 SE12      29.96F                  
OELWEIN *      CLOUDY    43  43 100 S14       29.93R FOG              
WATERLOO       CLOUDY    46  42  86 S13       29.92R                  
6HR MIN TEMP:  42; 6HR MAX TEMP:  47;                                

$$
 
IAZ064-065-067-068-078-150100-
   EAST CENTRAL IOWA
  
CITY           SKY/WX    TMP DP  RH WIND       PRES   REMARKS
DAVENPORT      CLOUDY    47  37  68 S14       30.02F                  
6HR MIN TEMP:  44; 6HR MAX TEMP:  47;                                

IOWA CITY      CLOUDY    49  41  74 SE10      29.98F                  
6HR MIN TEMP:  45; 6HR MAX TEMP:  49;                                

MT. PLEASANT * CLOUDY    48  40  75 SE13      29.99F                  
MUSCATINE *    CLOUDY    48  39  71 S9        29.99F                  
QUAD CITIES    CLOUDY    48  38  68 S14       29.99F                  
6HR MIN TEMP:  45; 6HR MAX TEMP:  48;                                

$$
 
IAZ062-063-075>077-085>089-095>099-150100-
   SOUTHEAST IOWA
  
CITY           SKY/WX    TMP DP  RH WIND       PRES   REMARKS
BURLINGTON     CLOUDY    49  38  65 S8        30.00F                  
6HR MIN TEMP:  47; 6HR MAX TEMP:  49;                                

FAIRFIELD *    CLOUDY    48  45  87 S13G20    29.96S                  
FORT MADISON * CLOUDY    48  39  71 SE9       30.01F                  
KEOKUK *       CLOUDY    50  39  66 SE9       30.00F                  
OSKALOOSA *    CLOUDY    47  46  97 S14       29.94S FOG              
OTTUMWA        CLOUDY    48  47  96 S13       29.94F FOG              
6HR MIN TEMP:  48; 6HR MAX TEMP:  50;                                

WASHINGTON *   CLOUDY    48  43  81 S15       29.97F                  
$$

ABBREVIATIONS USED IN REMARKS
   TC - TEMPERATURES IN CELSIUS
  WCI - WIND CHILL INDEX
   HX - HEAT INDEX
  VSB - VISIBILITY  
$$

  

170 
ASUS43 KDMX 150001
RWRIA 

WEATHER ROUNDUP FOR IOWA
NATIONAL WEATHER SERVICE DES MOINES IA
600 PM CST TUE NOV 14 2017

NOTE: "FAIR" INDICATES FEW OR NO CLOUDS BELOW 12,000 FEET WITH NO
SIGNIFICANT WEATHER AND/OR OBSTRUCTIONS TO VISIBILITY.

* - THESE STATIONS ARE NOT NWS STATIONS...THUS NOT UNDER NWS
QUALITY CONTROL.  THEY ALSO DO NOT REPORT WEATHER SUCH 
AS PRECIPITATION OR FOG.  

IAZ001>003-012>014-020>022-031>034-043>046-150100-
   NORTHWEST IOWA
  
CITY           SKY/WX    TMP DP  RH WIND       PRES   REMARKS
CARROLL *      CLOUDY    54  54 100 S13       29.82F FOG              
CHEROKEE *     CLOUDY    52  50  94 SW9       29.81R                  
DENISON *      CLOUDY    54  54 100 SW10G18   29.83S FOG              
LE MARS *      CLOUDY    52  48  87 S9        29.80R                  
ORANGE CITY *  CLOUDY    52  50  93 S8        29.79R                  
SHELDON *      CLOUDY    50  48  93 S9        29.77S FOG              
SIOUX CITY     CLOUDY    53  49  86 SW9       29.82R                  
6HR MIN TEMP:  51; 6HR MAX TEMP:  53;                                

SPENCER        CLOUDY    51  49  92 SW8       29.81S                  
6HR MIN TEMP:  48; 6HR MAX TEMP:  51;                                

STORM LAKE *   CLOUDY    52  50  93 SW13      29.81R FOG              
$$
 
IAZ055>058-069>071-079>083-090>094-150100-
   SOUTHWEST IOWA
  
CITY           SKY/WX    TMP DP  RH WIND       PRES   REMARKS
ATLANTIC *     CLOUDY    54  54 100 S13       29.84F FOG              
AUDUBON *      CLOUDY    54  52  94 S9        29.85S FOG              
CLARINDA *       N/A     54  54 100 S10         N/A  FOG              
COUNCIL BLFS * CLOUDY    54  54 100 S7        29.84S FOG              
CRESTON *      CLOUDY    52  52 100 S12       29.89S FOG              
HARLAN  *      CLOUDY    54  54 100 S9        29.87S FOG              
LAMONI         CLOUDY    50  50 100 S8        29.91S FOG              
6HR MIN TEMP:  50; 6HR MAX TEMP:  51;                                

RED OAK *      CLOUDY    55  55 100 S13       29.86S FOG              
SHENANDOAH *   CLOUDY    55  55 100 S12       29.87S FOG              
$$
 
IAZ047>049-059>061-072>074-084-150100-
   CENTRAL IOWA
  
CITY           SKY/WX    TMP DP  RH WIND       PRES   REMARKS
AMES           CLOUDY    50  50 100 S12       29.88R FOG              
6HR MIN TEMP:  49; 6HR MAX TEMP:  51;                                

ANKENY *       CLOUDY    50  50 100 S14       29.89S FOG              
BOONE *        CLOUDY    50  50 100 S10       29.87R FOG              
CHARITON *     CLOUDY    50  48  93 S13       29.91S                  
DES MOINES     DRIZZLE   51  50  96 S14       29.88F FOG              
6HR MIN TEMP:  49; 6HR MAX TEMP:  51; 6HR PCP:  0.01;                

GRINNELL*      CLOUDY    47  46  93 S14G20    29.93S FOG              
KNOXVILLE *    CLOUDY    50  46  87 S10G18    29.90F                  
MARSHALLTOWN   CLOUDY    48  48 100 S14       29.89S FOG              
6HR MIN TEMP:  45; 6HR MAX TEMP:  50;                                

NEWTON *       CLOUDY    48  48 100 S15       29.90F FOG              
PELLA *        CLOUDY    49  47  91 S8        29.94S FOG              
PERRY *        CLOUDY    52  52  99 S10       29.87R FOG              
$$
 
IAZ004>006-015-016-023>025-035-036-150100-
   NORTH CENTRAL IOWA
  
CITY           SKY/WX    TMP DP  RH WIND       PRES   REMARKS
ALGONA *       CLOUDY    50  50 100 S12       29.82F FOG              
CLARION *      CLOUDY    50  50 100 S17       29.84R FOG              
ESTHERVILLE    CLOUDY    49  49 100 S7        29.80S FOG              
6HR MIN TEMP:  44; 6HR MAX TEMP:  49;                                

FORT DODGE *   CLOUDY    51  50  96 S13       29.83F FOG              
MASON CITY     LGT RAIN  47  46  97 S15       29.87S FOG              
6HR MIN TEMP:  42; 6HR MAX TEMP:  47; 6HR PCP: TRACE;                

FOREST CITY *  DRIZZLE   46  46 100 S12       29.84S                  
WEBSTER CITY * CLOUDY    50  50 100 S15       29.83F FOG              
IOWA FALLS *   DRIZZLE   49  48  97 SE10      29.89S                  
$$

IAZ007>011-017>019-026>030-037>042-050>054-066-150100-
   NORTHEAST IOWA
  
CITY           SKY/WX    TMP DP  RH WIND       PRES   REMARKS
CEDAR RAPIDS   CLOUDY    45  43  93 S13       29.94F FOG              
6HR MIN TEMP:  43; 6HR MAX TEMP:  45; 6HR PCP: TRACE;                

CHARLES CITY * CLOUDY    45  45 100 SE12      29.89F FOG              
CLINTON *      CLOUDY    46  39  76 SE10      30.01F                  
DECORAH *      FOG       41  41 100 S10G16    29.92R VSB 3/4          
DUBUQUE        CLOUDY    42  39  89 S12       29.97F                  
6HR MIN TEMP:  39; 6HR MAX TEMP:  42;                                

MONTICELLO *   CLOUDY    45  41  87 SE12      29.96F                  
OELWEIN *      CLOUDY    43  43 100 S14       29.93R FOG              
WATERLOO       CLOUDY    46  42  86 S13       29.92R                  
6HR MIN TEMP:  42; 6HR MAX TEMP:  47;                                

$$
 
IAZ064-065-067-068-078-150100-
   EAST CENTRAL IOWA
  
CITY           SKY/WX    TMP DP  RH WIND       PRES   REMARKS
DAVENPORT      CLOUDY    47  37  68 S14       30.02F                  
6HR MIN TEMP:  44; 6HR MAX TEMP:  47;                                

IOWA CITY      CLOUDY    49  41  74 SE10      29.98F                  
6HR MIN TEMP:  45; 6HR MAX TEMP:  49;                                

MT. PLEASANT * CLOUDY    48  40  75 SE13      29.99F                  
MUSCATINE *    CLOUDY    48  39  71 S9        29.99F                  
QUAD CITIES    CLOUDY    48  38  68 S14       29.99F                  
6HR MIN TEMP:  45; 6HR MAX TEMP:  48;                                

$$
 
IAZ062-063-075>077-085>089-095>099-150100-
   SOUTHEAST IOWA
  
CITY           SKY/WX    TMP DP  RH WIND       PRES   REMARKS
BURLINGTON     CLOUDY    49  38  65 S8        30.00F                  
6HR MIN TEMP:  47; 6HR MAX TEMP:  49;                                

FAIRFIELD *    CLOUDY    48  45  87 S13G20    29.96S                  
FORT MADISON * CLOUDY    48  39  71 SE9       30.01F                  
KEOKUK *       CLOUDY    50  39  66 SE9       30.00F                  
OSKALOOSA *    CLOUDY    47  46  97 S14       29.94S FOG              
OTTUMWA        CLOUDY    48  47  96 S13       29.94F FOG              
6HR MIN TEMP:  48; 6HR MAX TEMP:  50;                                

WASHINGTON *   CLOUDY    48  43  81 S15       29.97F                  
$$

ABBREVIATIONS USED IN REMARKS
   TC - TEMPERATURES IN CELSIUS
  WCI - WIND CHILL INDEX
   HX - HEAT INDEX
  VSB - VISIBILITY  
$$